GW0401 Weather Reports


Display with metric or nautical units.
time (UTC)temp
F
wind
direction
speed
MPH
gust
MPH
rain 1hr
in
rain 24hr
in
rain mn
in
humidity
%
barometer
mb
20260506210903 47 14 9.0 13.0 0.00 0.00 0.00 82 1011.5
20260506210403 47 17 10.0 12.0 0.00 0.00 0.00 82 1011.4
20260506205903 47 7 8.0 12.0 0.00 0.00 0.00 82 1011.4
20260506204905 47 3 7.0 12.0 0.00 0.00 0.00 82 1011.5
20260506204403 47 6 9.0 12.0 0.00 0.00 0.00 82 1011.4
20260506203903 47 7 8.0 12.0 0.00 0.00 0.00 81 1011.4
20260506203402 47 14 9.0 12.0 0.00 0.00 0.00 81 1011.3
20260506202402 48 13 7.0 12.0 0.00 0.00 0.00 79 1011.3
20260506201902 48 17 9.0 12.0 0.00 0.00 0.00 80 1011.3
20260506201403 48 11 8.0 11.0 0.00 0.00 0.00 79 1011.3
20260506200401 48 356 6.0 12.0 0.00 0.00 0.00 79 1011.2
20260506195902 49 4 8.0 12.0 0.00 0.00 0.00 79 1011.1
20260506195401 48 7 8.0 11.0 0.00 0.00 0.00 79 1011.1
20260506194901 49 1 7.0 11.0 0.00 0.00 0.00 79 1011.0
20260506194359 49 14 6.0 11.0 0.00 0.00 0.00 78 1011.0
20260506193859 49 25 8.0 11.0 0.00 0.00 0.00 77 1011.0
20260506193400 49 18 8.0 11.0 0.00 0.00 0.00 77 1011.0
20260506192859 49 25 9.0 12.0 0.00 0.00 0.00 76 1010.9
20260506192356 50 17 10.0 14.0 0.00 0.00 0.00 75 1010.9
20260506191859 50 32 11.0 14.0 0.00 0.00 0.00 75 1010.9
20260506191357 50 21 10.0 12.0 0.00 0.00 0.00 75 1010.8
20260506190356 51 42 8.0 16.0 0.00 0.00 0.00 74 1010.7
20260506185858 51 24 11.0 16.0 0.00 0.00 0.00 73 1010.6
20260506184856 51 42 6.0 7.0 0.00 0.00 0.00 76 1010.5
20260506184358 51 11 4.0 6.0 0.00 0.00 0.00 78 1010.5
20260506183856 51 15 2.0 4.0 0.00 0.00 0.00 79 1010.4
20260506183355 51 31 3.0 4.0 0.00 0.00 0.00 78 1010.4
20260506182855 51 38 3.0 4.0 0.00 0.00 0.00 77 1010.3
20260506182356 51 49 3.0 4.0 0.00 0.00 0.00 77 1010.2
20260506181855 51 51 2.0 3.0 0.00 0.00 0.00 77 1010.2
20260506180854 52 51 2.0 4.0 0.00 0.00 0.00 76 1010.0
20260506180356 52 49 2.0 4.0 0.00 0.00 0.00 76 1009.9
20260506175855 52 49 3.0 4.0 0.00 0.00 0.00 76 1009.8
20260506175354 52 62 2.0 3.0 0.00 0.00 0.00 74 1009.7
20260506174854 52 62 2.0 4.0 0.00 0.00 0.00 74 1009.7
20260506174356 52 68 3.0 4.0 0.00 0.00 0.00 73 1009.7
20260506173854 52 111 1.0 2.0 0.00 0.00 0.00 73 1009.7
20260506173355 53 111 0.0 2.0 0.00 0.00 0.00 72 1009.6
20260506172351 53 111 1.0 3.0 0.00 0.00 0.00 72 1009.6
20260506171854 53 111 2.0 3.0 0.00 0.00 0.00 72 1009.5
20260506170852 53 110 0.0 3.0 0.00 0.00 0.00 70 1009.5
20260506170351 53 110 1.0 4.0 0.00 0.00 0.00 72 1009.5
20260506165351 53 120 2.0 3.0 0.00 0.00 0.00 72 1009.4
20260506164854 53 124 2.0 4.0 0.00 0.00 0.00 72 1009.4
20260506164352 53 97 2.0 4.0 0.00 0.00 0.00 71 1009.4
20260506163852 52 104 3.0 6.0 0.00 0.00 0.00 72 1009.4
20260506162851 53 107 6.0 6.0 0.00 0.00 0.00 71 1009.3
20260506162351 53 86 4.0 6.0 0.00 0.00 0.00 72 1009.3
20260506161850 53 104 4.0 7.0 0.00 0.00 0.00 71 1009.3
20260506161350 53 106 5.0 7.0 0.00 0.00 0.00 71 1009.3
20260506160849 53 94 4.0 9.0 0.00 0.00 0.00 71 1009.2
20260506160349 53 113 6.0 9.0 0.00 0.00 0.00 71 1009.3
20260506155849 53 118 6.0 9.0 0.00 0.00 0.00 70 1009.3
20260506153846 54 85 6.0 10.0 0.00 0.00 0.00 69 1009.3
20260506153346 53 107 6.0 10.0 0.00 0.00 0.00 69 1009.4
20260506152846 53 90 8.0 11.0 0.00 0.00 0.00 67 1009.3
20260506151847 54 109 7.0 12.0 0.00 0.00 0.00 68 1009.3
20260506151345 54 85 9.0 12.0 0.00 0.00 0.00 67 1009.3
20260506150846 54 58 8.0 15.0 0.00 0.00 0.00 67 1009.3
20260506150347 54 78 9.0 15.0 0.00 0.00 0.00 68 1009.3
20260506145845 54 58 10.0 13.0 0.00 0.00 0.00 66 1009.3
20260506145346 54 86 9.0 12.0 0.00 0.00 0.00 67 1009.2
20260506144845 54 86 8.0 12.0 0.00 0.00 0.00 67 1009.2
20260506143843 53 94 8.0 13.0 0.00 0.00 0.00 67 1009.1
20260506143344 53 63 9.0 13.0 0.00 0.00 0.00 67 1009.1
20260506142344 53 68 9.0 14.0 0.00 0.00 0.00 68 1009.1
20260506141843 53 83 11.0 14.0 0.00 0.00 0.00 67 1009.2
20260506141345 54 83 8.0 16.0 0.00 0.00 0.00 68 1009.1
20260506140844 54 82 12.0 16.0 0.00 0.00 0.00 66 1009.1
20260506140344 54 94 11.0 16.0 0.00 0.00 0.00 68 1009.1
20260506135848 53 78 9.0 14.0 0.00 0.00 0.00 68 1009.0
20260506135344 53 94 10.0 16.0 0.00 0.00 0.00 68 1009.1
20260506134844 53 97 13.0 16.0 0.00 0.00 0.00 67 1009.2
20260506134344 53 70 10.0 15.0 0.00 0.00 0.00 67 1009.1
20260506133844 53 75 9.0 13.0 0.00 0.00 0.00 68 1009.1
20260506133344 52 70 10.0 15.0 0.00 0.00 0.00 68 1009.1
20260506132844 52 82 9.0 18.0 0.00 0.00 0.00 70 1009.2
20260506132349 52 86 12.0 18.0 0.00 0.00 0.00 68 1009.1
20260506131843 52 70 11.0 18.0 0.00 0.00 0.00 67 1009.2
20260506131343 52 82 12.0 18.0 0.00 0.00 0.00 67 1009.2
20260506130845 51 90 12.0 19.0 0.00 0.00 0.00 67 1009.1
20260506130342 51 85 15.0 19.0 0.00 0.00 0.00 66 1009.1
20260506125846 52 83 13.0 17.0 0.00 0.00 0.00 66 1009.2
20260506125345 52 93 11.0 16.0 0.00 0.00 0.00 68 1009.3
20260506124342 52 51 10.0 16.0 0.00 0.00 0.00 67 1009.2
20260506123842 52 69 12.0 19.0 0.00 0.00 0.00 66 1009.2
20260506122844 52 69 13.0 17.0 0.00 0.00 0.00 66 1009.2
20260506122342 52 63 12.0 18.0 0.00 0.00 0.00 67 1009.2
20260506121842 52 70 10.0 21.0 0.00 0.00 0.00 70 1009.2
20260506121342 52 65 15.0 21.0 0.00 0.00 0.00 69 1009.2
20260506120843 52 75 13.0 19.0 0.00 0.00 0.00 69 1009.2
20260506120340 52 59 14.0 20.0 0.00 0.00 0.00 70 1009.0
20260506115841 52 56 15.0 20.0 0.00 0.00 0.00 70 1009.0
20260506115341 51 49 15.0 20.0 0.00 0.00 0.00 71 1008.9
20260506114843 51 65 11.0 16.0 0.00 0.00 0.00 72 1008.9
20260506114341 51 69 14.0 18.0 0.00 0.00 0.00 71 1008.8
20260506113842 51 51 11.0 18.0 0.00 0.00 0.00 72 1008.8
20260506113531 51 49 16.0 18.0 0.00 0.00 0.00 70 1008.8
20260506112841 51 51 12.0 15.0 0.00 0.00 0.00 70 1008.8
20260506112344 51 52 10.0 15.0 0.00 0.00 0.00 72 1008.8
20260506111841 51 51 11.0 15.0 0.00 0.00 0.00 71 1008.7
20260506111344 51 38 9.0 14.0 0.00 0.00 0.00 71 1008.7
20260506110839 50 27 10.0 17.0 0.00 0.00 0.00 72 1008.7
20260506110338 50 46 13.0 17.0 0.00 0.00 0.00 70 1008.6
20260506105839 50 39 8.0 18.0 0.00 0.00 0.00 72 1008.6
20260506105339 50 61 14.0 18.0 0.00 0.00 0.00 69 1008.7
20260506104838 50 61 10.0 17.0 0.00 0.00 0.00 72 1008.6
20260506104338 50 42 9.0 17.0 0.00 0.00 0.00 70 1008.6
20260506103839 50 46 10.0 18.0 0.00 0.00 0.00 71 1008.6
20260506102838 50 42 13.0 18.0 0.00 0.00 0.00 69 1008.5
20260506102337 50 55 14.0 18.0 0.00 0.00 0.00 68 1008.6
20260506101838 51 58 11.0 17.0 0.00 0.00 0.00 69 1008.5
20260506101337 51 56 10.0 16.0 0.00 0.00 0.00 70 1008.4
20260506100838 50 37 13.0 19.0 0.00 0.00 0.00 68 1008.5
20260506095836 51 62 12.0 17.0 0.00 0.00 0.00 68 1008.4
20260506095336 51 55 13.0 20.0 0.00 0.00 0.00 67 1008.4
20260506094337 51 49 15.0 18.0 0.00 0.00 0.00 67 1008.4
20260506093840 51 45 14.0 19.0 0.00 0.00 0.00 67 1008.3
20260506093335 51 46 13.0 19.0 0.00 0.00 0.00 68 1008.3
20260506092836 51 52 9.0 14.0 0.00 0.00 0.00 70 1008.2
20260506091835 51 44 11.0 18.0 0.00 0.00 0.00 68 1008.3
20260506091335 51 39 11.0 17.0 0.00 0.00 0.00 70 1008.1
20260506090847 51 42 13.0 17.0 0.00 0.00 0.00 69 1008.1
20260506090333 51 54 10.0 17.0 0.00 0.00 0.00 69 1008.1
20260506085832 51 35 12.0 17.0 0.00 0.00 0.00 70 1008.1
20260506084832 51 52 11.0 20.0 0.00 0.00 0.00 71 1008.1
20260506083832 51 42 9.0 17.0 0.00 0.00 0.00 73 1008.0
20260506083332 51 37 12.0 17.0 0.00 0.00 0.00 72 1008.0
20260506082832 51 44 10.0 17.0 0.00 0.00 0.00 73 1007.8
20260506081832 51 31 11.0 17.0 0.00 0.00 0.00 73 1007.9
20260506081332 51 52 12.0 17.0 0.00 0.00 0.00 74 1007.9
20260506080831 50 44 11.0 16.0 0.00 0.00 0.00 74 1007.8
20260506080330 50 54 12.0 16.0 0.00 0.00 0.00 74 1007.8
20260506073330 50 41 11.0 17.0 0.00 0.00 0.00 79 1007.7
20260506072831 50 31 10.0 16.0 0.00 0.00 0.00 79 1007.7
20260506072330 50 48 12.0 16.0 0.00 0.00 0.00 78 1007.7
20260506070831 50 35 11.0 16.0 0.00 0.00 0.00 77 1007.6
20260506070330 50 37 12.0 19.0 0.00 0.00 0.00 77 1007.6
20260506062328 49 28 9.0 14.0 0.00 0.00 0.00 77 1007.6
20260506061828 49 35 9.0 12.0 0.00 0.00 0.00 77 1007.4
20260506061328 49 28 9.0 12.0 0.00 0.00 0.00 77 1007.5
20260506060830 49 27 9.0 13.0 0.00 0.00 0.00 77 1007.4
20260506060330 49 24 9.0 13.0 0.00 0.00 0.00 77 1007.5
20260506051323 49 41 6.0 9.0 0.00 0.00 0.00 81 1007.4
20260506050822 49 46 7.0 12.0 0.00 0.00 0.00 81 1007.4
20260506043819 49 31 8.0 12.0 0.00 0.00 0.00 80 1007.3
20260506043320 49 28 9.0 12.0 0.00 0.00 0.00 80 1007.3
20260506042317 49 32 10.0 14.0 0.00 0.00 0.00 80 1007.2
20260506041817 49 24 11.0 14.0 0.00 0.00 0.00 81 1007.2
20260506041317 49 31 10.0 13.0 0.00 0.00 0.00 81 1007.2
20260506040320 49 25 10.0 15.0 0.00 0.00 0.00 82 1007.3
20260506035816 49 30 10.0 15.0 0.00 0.00 0.00 82 1007.2
20260506035318 49 28 10.0 15.0 0.00 0.00 0.00 82 1007.1
20260506034819 49 28 11.0 15.0 0.00 0.00 0.00 82 1007.1
20260506034318 49 13 12.0 15.0 0.00 0.00 0.00 83 1007.2
20260506033817 49 27 9.0 15.0 0.00 0.00 0.00 83 1007.3
20260506033320 49 28 11.0 15.0 0.00 0.00 0.00 84 1007.3
20260506032816 49 23 11.0 15.0 0.00 0.00 0.00 84 1007.3
20260506032315 49 24 11.0 16.0 0.00 0.00 0.00 84 1007.5
20260506031818 49 8 11.0 16.0 0.00 0.00 0.00 84 1007.5
20260506031316 49 21 12.0 15.0 0.00 0.00 0.00 84 1007.5
20260506030817 49 27 9.0 13.0 0.00 0.00 0.00 84 1007.5
20260506030315 49 14 10.0 13.0 0.00 0.00 0.00 85 1007.5
20260506025315 49 23 10.0 13.0 0.00 0.00 0.00 84 1007.6
20260506023818 49 15 9.0 13.0 0.00 0.00 0.00 85 1007.6
20260506022814 49 18 9.0 12.0 0.00 0.00 0.00 84 1007.6
20260506022314 49 25 10.0 13.0 0.00 0.00 0.00 84 1007.6
20260506021815 49 25 9.0 13.0 0.00 0.00 0.00 84 1007.7
20260506021314 49 30 9.0 11.0 0.00 0.00 0.00 84 1007.8
20260506020815 49 21 9.0 12.0 0.00 0.00 0.00 84 1007.7
20260506015816 49 15 8.0 11.0 0.00 0.00 0.00 84 1007.9
20260506014815 49 15 8.0 11.0 0.00 0.00 0.00 83 1008.0
20260506014314 49 10 8.0 12.0 0.00 0.00 0.00 83 1008.0
20260506013814 49 14 9.0 12.0 0.00 0.00 0.00 83 1008.1
20260506012813 49 20 9.0 12.0 0.00 0.00 0.00 83 1008.1
20260506012313 49 14 9.0 12.0 0.00 0.00 0.00 83 1008.1
20260506011814 49 8 8.0 13.0 0.00 0.00 0.00 83 1008.1
20260506011314 49 24 10.0 13.0 0.00 0.00 0.00 83 1008.1
20260506010814 49 7 8.0 12.0 0.00 0.00 0.00 83 1008.1
20260506010314 49 10 9.0 12.0 0.00 0.00 0.00 83 1008.2
20260506005312 49 14 9.0 11.0 0.00 0.00 0.00 82 1008.2
20260506004813 49 11 8.0 11.0 0.00 0.00 0.00 82 1008.3
20260506004312 49 11 7.0 11.0 0.00 0.00 0.00 82 1008.3
20260506003812 49 14 8.0 11.0 0.00 0.00 0.00 82 1008.4
20260506003315 49 11 7.0 12.0 0.00 0.00 0.00 82 1008.4
20260506002814 49 17 9.0 12.0 0.00 0.00 0.00 82 1008.4
20260506002317 49 28 8.0 12.0 0.00 0.00 0.00 82 1008.6
20260506000813 49 32 9.0 13.0 0.00 0.00 0.00 81 1008.6
20260506000312 49 24 9.0 13.0 0.00 0.00 0.00 81 1008.7
20260505235811 49 31 8.0 11.0 0.00 0.00 0.00 81 1008.7
20260505235311 49 30 7.0 12.0 0.00 0.00 0.00 81 1008.8
20260505234808 49 18 6.0 12.0 0.00 0.00 0.00 81 1008.8
20260505234310 49 14 9.0 12.0 0.00 0.00 0.00 81 1008.9
20260505233309 49 25 9.0 14.0 0.00 0.00 0.00 81 1008.9
20260505232810 49 24 9.0 13.0 0.00 0.00 0.00 80 1008.9
20260505232310 49 30 10.0 13.0 0.00 0.00 0.00 80 1009.0
20260505231809 49 21 11.0 13.0 0.00 0.00 0.00 80 1009.0
20260505230809 49 28 10.0 16.0 0.00 0.00 0.00 80 1009.0
20260505230308 49 21 10.0 14.0 0.00 0.00 0.00 80 1009.0
20260505225310 49 27 8.0 13.0 0.00 0.00 0.00 80 1009.0
20260505224808 49 25 10.0 17.0 0.00 0.00 0.00 80 1009.0
20260505224307 49 24 10.0 17.0 0.00 0.00 0.00 80 1009.1
20260505223812 49 17 8.0 15.0 0.00 0.00 0.00 80 1009.1
20260505223308 49 30 11.0 14.0 0.00 0.00 0.00 80 1009.2
20260505222810 49 17 11.0 17.0 0.00 0.00 0.00 80 1009.2
20260505222307 49 21 11.0 17.0 0.00 0.00 0.00 81 1009.2
20260505221808 49 32 10.0 14.0 0.00 0.00 0.00 81 1009.2
20260505221308 49 8 10.0 17.0 0.00 0.00 0.00 81 1009.2
20260505220809 49 14 11.0 17.0 0.00 0.00 0.00 80 1009.3
20260505220307 49 44 11.0 15.0 0.00 0.00 0.00 81 1009.3
20260505215809 49 21 11.0 16.0 0.00 0.00 0.00 81 1009.3
20260505215308 49 31 11.0 16.0 0.00 0.00 0.00 81 1009.3
20260505214806 49 18 12.0 14.0 0.00 0.00 0.00 81 1009.4
20260505214306 49 20 9.0 15.0 0.00 0.00 0.00 81 1009.4
20260505213807 49 17 10.0 15.0 0.00 0.00 0.00 81 1009.4
20260505213306 49 31 10.0 14.0 0.00 0.00 0.00 81 1009.5
20260505212809 49 10 10.0 14.0 0.00 0.00 0.00 81 1009.5
20260505212308 49 23 11.0 14.0 0.00 0.00 0.00 81 1009.5